Time,TemperatureF,DewpointF,PressureIn,WindDirection,WindDirectionDegrees,WindSpeedMPH,WindSpeedGustMPH,Humidity,HourlyPrecipIn,Conditions,Clouds,dailyrainin,SoftwareType,DateUTC
2013-01-13 00:04:00,37.6,32.0,28.85,West,259,0.0,0.0,82,0.00,,,-99.99,wx200d/1.3,2013-01-13 05:04:00,
2013-01-13 00:06:00,37.6,32.0,28.85,SSW,213,0.0,0.0,82,0.00,,,-99.99,wx200d/1.3,2013-01-13 05:06:00,
2013-01-13 00:08:00,37.6,32.0,28.85,South,182,2.7,3.6,82,0.00,,,-99.99,wx200d/1.3,2013-01-13 05:08:00,
2013-01-13 00:14:00,37.6,32.0,28.85,SSW,192,0.0,2.7,82,0.00,,,-99.99,wx200d/1.3,2013-01-13 05:14:00,
2013-01-13 00:22:00,37.6,32.0,28.85,West,268,0.0,0.0,82,0.00,,,-99.99,wx200d/1.3,2013-01-13 05:22:00,
2013-01-13 00:28:00,37.6,32.0,28.85,SW,230,2.2,4.0,82,0.00,,,-99.99,wx200d/1.3,2013-01-13 05:28:00,
2013-01-13 00:34:00,37.6,32.0,28.85,SW,228,2.7,2.7,82,0.00,,,-99.99,wx200d/1.3,2013-01-13 05:34:00,
2013-01-13 00:42:00,37.4,32.0,28.85,SW,231,2.7,4.0,82,0.00,,,-99.99,wx200d/1.3,2013-01-13 05:42:00,
2013-01-13 00:48:00,37.4,32.0,28.85,WSW,244,2.2,4.5,82,0.00,,,-99.99,wx200d/1.3,2013-01-13 05:48:00,
2013-01-13 00:54:00,37.4,32.0,28.85,West,277,2.2,2.2,82,0.00,,,-99.99,wx200d/1.3,2013-01-13 05:54:00,
2013-01-13 01:04:00,37.4,32.0,28.85,SSW,207,0.0,2.7,82,0.00,,,-99.99,wx200d/1.3,2013-01-13 06:04:00,
2013-01-13 01:10:00,37.4,32.0,28.85,SW,231,0.0,3.6,82,0.00,,,-99.99,wx200d/1.3,2013-01-13 06:10:00,
2013-01-13 01:16:00,37.4,32.0,28.85,SSW,202,0.0,0.0,82,0.00,,,-99.99,wx200d/1.3,2013-01-13 06:16:00,
2013-01-13 01:22:00,37.4,32.0,28.85,SSW,202,0.0,0.0,82,0.00,,,-99.99,wx200d/1.3,2013-01-13 06:22:00,
2013-01-13 01:28:00,37.4,32.0,28.85,SW,235,0.0,0.0,82,0.00,,,-99.99,wx200d/1.3,2013-01-13 06:28:00,
2013-01-13 01:34:00,37.2,32.0,28.85,West,264,0.0,0.0,83,0.00,,,-99.99,wx200d/1.3,2013-01-13 06:34:00,
2013-01-13 01:40:00,37.2,32.0,28.85,WSW,253,0.0,0.0,83,0.00,,,-99.99,wx200d/1.3,2013-01-13 06:40:00,
2013-01-13 01:46:00,37.2,32.0,28.85,SW,221,0.0,2.7,83,0.00,,,-99.99,wx200d/1.3,2013-01-13 06:46:00,
2013-01-13 01:52:00,37.2,32.0,28.85,WSW,255,0.0,0.0,83,0.00,,,-99.99,wx200d/1.3,2013-01-13 06:52:00,
2013-01-13 01:58:00,37.2,32.0,28.85,WSW,254,0.0,2.2,83,0.00,,,-99.99,wx200d/1.3,2013-01-13 06:58:00,
2013-01-13 02:04:00,37.2,32.0,28.88,South,180,0.0,4.0,83,0.00,,,-99.99,wx200d/1.3,2013-01-13 07:04:00,
2013-01-13 02:10:00,37.4,32.0,28.88,WSW,251,0.0,0.0,83,0.00,,,-99.99,wx200d/1.3,2013-01-13 07:10:00,
2013-01-13 02:16:00,37.4,32.0,28.88,WSW,254,2.7,4.0,83,0.00,,,-99.99,wx200d/1.3,2013-01-13 07:16:00,
2013-01-13 02:22:00,37.4,32.0,28.88,West,269,0.0,0.0,83,0.00,,,-99.99,wx200d/1.3,2013-01-13 07:22:00,
2013-01-13 02:28:00,37.2,32.0,28.88,West,265,0.0,0.0,83,0.00,,,-99.99,wx200d/1.3,2013-01-13 07:28:00,
2013-01-13 02:34:00,37.2,32.0,28.88,SW,231,2.2,2.7,83,0.00,,,-99.99,wx200d/1.3,2013-01-13 07:34:00,
2013-01-13 02:40:00,37.4,32.0,28.88,West,265,0.0,2.7,83,0.00,,,-99.99,wx200d/1.3,2013-01-13 07:40:00,
2013-01-13 02:46:00,37.4,32.0,28.88,SW,221,0.0,0.0,83,0.00,,,-99.99,wx200d/1.3,2013-01-13 07:46:00,
2013-01-13 02:52:00,37.2,32.0,28.88,SW,228,0.0,0.0,83,0.00,,,-99.99,wx200d/1.3,2013-01-13 07:52:00,
2013-01-13 02:58:00,37.2,32.0,28.88,SW,215,0.0,0.0,83,0.00,,,-99.99,wx200d/1.3,2013-01-13 07:58:00,
2013-01-13 03:04:00,37.2,32.0,28.88,SSW,211,0.0,0.0,83,0.00,,,-99.99,wx200d/1.3,2013-01-13 08:04:00,
2013-01-13 03:10:00,37.2,32.0,28.88,SSW,204,0.0,0.0,83,0.00,,,-99.99,wx200d/1.3,2013-01-13 08:10:00,
2013-01-13 03:16:00,37.2,32.0,28.88,SW,220,0.0,0.0,83,0.00,,,-99.99,wx200d/1.3,2013-01-13 08:16:00,
2013-01-13 03:22:00,37.2,32.0,28.85,SSW,196,0.0,3.1,83,0.00,,,-99.99,wx200d/1.3,2013-01-13 08:22:00,
2013-01-13 03:28:00,37.4,32.0,28.85,SSW,206,0.0,2.2,83,0.00,,,-99.99,wx200d/1.3,2013-01-13 08:28:00,
2013-01-13 03:34:00,37.2,32.0,28.85,West,278,0.0,0.0,83,0.00,,,-99.99,wx200d/1.3,2013-01-13 08:34:00,
2013-01-13 03:40:00,37.2,32.0,28.85,SW,223,0.0,0.0,83,0.00,,,-99.99,wx200d/1.3,2013-01-13 08:40:00,
2013-01-13 03:46:00,37.4,32.0,28.85,SSW,201,0.0,0.0,83,0.00,,,-99.99,wx200d/1.3,2013-01-13 08:46:00,
2013-01-13 03:52:00,37.4,32.0,28.85,South,186,0.0,0.0,83,0.00,,,-99.99,wx200d/1.3,2013-01-13 08:52:00,
2013-01-13 03:58:00,36.9,32.0,28.85,South,186,0.0,0.0,83,0.00,,,-99.99,wx200d/1.3,2013-01-13 08:58:00,
2013-01-13 04:04:00,36.7,32.0,28.82,South,186,0.0,0.0,83,0.00,,,-99.99,wx200d/1.3,2013-01-13 09:04:00,
2013-01-13 04:10:00,36.9,32.0,28.82,South,186,0.0,0.0,83,0.00,,,-99.99,wx200d/1.3,2013-01-13 09:10:00,
2013-01-13 04:16:00,36.9,32.0,28.82,WSW,250,0.0,0.0,83,0.00,,,-99.99,wx200d/1.3,2013-01-13 09:16:00,
2013-01-13 04:22:00,36.9,32.0,28.82,SW,225,0.0,0.0,83,0.00,,,-99.99,wx200d/1.3,2013-01-13 09:22:00,
2013-01-13 04:28:00,36.9,32.0,28.82,SW,224,0.0,0.0,83,0.00,,,-99.99,wx200d/1.3,2013-01-13 09:28:00,
2013-01-13 04:34:00,37.0,32.0,28.82,SSW,196,0.0,2.7,83,0.00,,,-99.99,wx200d/1.3,2013-01-13 09:34:00,
2013-01-13 04:40:00,37.0,34.0,28.82,West,264,0.0,0.0,84,0.00,,,-99.99,wx200d/1.3,2013-01-13 09:40:00,
2013-01-13 04:46:00,37.0,34.0,28.85,WSW,240,0.0,0.0,84,0.00,,,-99.99,wx200d/1.3,2013-01-13 09:46:00,
2013-01-13 04:52:00,37.0,34.0,28.85,WSW,251,0.0,0.0,84,0.00,,,-99.99,wx200d/1.3,2013-01-13 09:52:00,
2013-01-13 04:58:00,36.9,34.0,28.85,WSW,251,0.0,0.0,84,0.00,,,-99.99,wx200d/1.3,2013-01-13 09:58:00,
2013-01-13 05:04:00,36.9,32.0,28.85,WSW,251,0.0,0.0,83,0.00,,,-99.99,wx200d/1.3,2013-01-13 10:04:00,
2013-01-13 05:10:00,36.9,32.0,28.85,West,262,0.0,0.0,83,0.00,,,-99.99,wx200d/1.3,2013-01-13 10:10:00,
2013-01-13 05:16:00,36.9,34.0,28.85,West,262,0.0,0.0,84,0.00,,,-99.99,wx200d/1.3,2013-01-13 10:16:00,
2013-01-13 05:22:00,36.9,34.0,28.82,West,262,0.0,0.0,84,0.00,,,-99.99,wx200d/1.3,2013-01-13 10:22:00,
2013-01-13 05:28:00,36.9,32.0,28.82,West,262,0.0,0.0,83,0.00,,,-99.99,wx200d/1.3,2013-01-13 10:28:00,
2013-01-13 05:34:00,36.9,32.0,28.85,West,262,0.0,0.0,83,0.00,,,-99.99,wx200d/1.3,2013-01-13 10:34:00,
2013-01-13 05:40:00,36.9,32.0,28.85,West,262,0.0,0.0,83,0.00,,,-99.99,wx200d/1.3,2013-01-13 10:40:00,
2013-01-13 05:46:00,36.9,34.0,28.82,West,262,0.0,0.0,84,0.00,,,-99.99,wx200d/1.3,2013-01-13 10:46:00,
2013-01-13 05:52:00,37.0,34.0,28.82,WSW,250,0.0,0.0,84,0.00,,,-99.99,wx200d/1.3,2013-01-13 10:52:00,
2013-01-13 05:58:00,37.0,34.0,28.82,South,190,0.0,0.0,84,0.00,,,-99.99,wx200d/1.3,2013-01-13 10:58:00,
2013-01-13 06:04:00,36.9,34.0,28.82,SSW,200,0.0,0.0,84,0.00,,,-99.99,wx200d/1.3,2013-01-13 11:04:00,
2013-01-13 06:10:00,36.5,32.0,28.82,SSW,200,0.0,0.0,83,0.00,,,-99.99,wx200d/1.3,2013-01-13 11:10:00,
2013-01-13 06:16:00,36.3,32.0,28.82,SSW,200,0.0,0.0,83,0.00,,,-99.99,wx200d/1.3,2013-01-13 11:16:00,
2013-01-13 06:22:00,36.3,32.0,28.82,SW,231,0.0,0.0,83,0.00,,,-99.99,wx200d/1.3,2013-01-13 11:22:00,
2013-01-13 06:28:00,36.5,32.0,28.82,SW,217,0.0,0.0,83,0.00,,,-99.99,wx200d/1.3,2013-01-13 11:28:00,
2013-01-13 06:34:00,36.7,32.0,28.85,SW,236,0.0,3.1,83,0.00,,,-99.99,wx200d/1.3,2013-01-13 11:34:00,
2013-01-13 06:40:00,36.7,32.0,28.85,SW,219,0.0,0.0,83,0.00,,,-99.99,wx200d/1.3,2013-01-13 11:40:00,
2013-01-13 06:46:00,36.7,32.0,28.85,WSW,255,0.0,0.0,83,0.00,,,-99.99,wx200d/1.3,2013-01-13 11:46:00,
2013-01-13 06:52:00,36.7,32.0,28.85,SW,230,3.6,0.0,83,0.00,,,-99.99,wx200d/1.3,2013-01-13 11:52:00,
2013-01-13 06:58:00,36.9,34.0,28.85,SSW,197,2.7,3.1,84,0.00,,,-99.99,wx200d/1.3,2013-01-13 11:58:00,
2013-01-13 07:04:00,37.0,34.0,28.85,SW,219,0.0,0.0,84,0.00,,,-99.99,wx200d/1.3,2013-01-13 12:04:00,
2013-01-13 07:10:00,36.9,34.0,28.85,SSE,156,0.0,0.0,84,0.00,,,-99.99,wx200d/1.3,2013-01-13 12:10:00,
2013-01-13 07:16:00,36.7,34.0,28.85,SW,220,0.0,0.0,84,0.00,,,-99.99,wx200d/1.3,2013-01-13 12:16:00,
2013-01-13 07:22:00,36.7,32.0,28.85,SW,234,0.0,0.0,83,0.00,,,-99.99,wx200d/1.3,2013-01-13 12:22:00,
2013-01-13 07:28:00,36.7,32.0,28.85,West,261,0.0,0.0,83,0.00,,,-99.99,wx200d/1.3,2013-01-13 12:28:00,
2013-01-13 07:34:00,36.5,32.0,28.88,West,263,0.0,0.0,83,0.00,,,-99.99,wx200d/1.3,2013-01-13 12:34:00,
2013-01-13 07:40:00,36.7,32.0,28.88,SW,219,0.0,2.2,83,0.00,,,-99.99,wx200d/1.3,2013-01-13 12:40:00,
2013-01-13 07:46:00,36.9,34.0,28.85,WSW,257,0.0,2.7,84,0.00,,,-99.99,wx200d/1.3,2013-01-13 12:46:00,
2013-01-13 07:52:00,37.0,34.0,28.85,SW,218,0.0,0.0,84,0.00,,,-99.99,wx200d/1.3,2013-01-13 12:52:00,
2013-01-13 07:58:00,36.9,34.0,28.85,SW,230,0.0,0.0,84,0.00,,,-99.99,wx200d/1.3,2013-01-13 12:58:00,
2013-01-13 08:04:00,36.9,34.0,28.88,SW,230,0.0,0.0,84,0.00,,,-99.99,wx200d/1.3,2013-01-13 13:04:00,
2013-01-13 08:10:00,36.9,34.0,28.88,SW,230,0.0,0.0,84,0.00,,,-99.99,wx200d/1.3,2013-01-13 13:10:00,
2013-01-13 08:16:00,37.0,34.0,28.88,West,260,0.0,0.0,84,0.00,,,-99.99,wx200d/1.3,2013-01-13 13:16:00,
2013-01-13 08:22:00,37.0,34.0,28.85,West,260,0.0,0.0,84,0.00,,,-99.99,wx200d/1.3,2013-01-13 13:22:00,
2013-01-13 08:28:00,37.2,34.0,28.85,SW,218,0.0,0.0,84,0.00,,,-99.99,wx200d/1.3,2013-01-13 13:28:00,
2013-01-13 08:34:00,37.4,32.0,28.85,SW,222,0.0,0.0,83,0.00,,,-99.99,wx200d/1.3,2013-01-13 13:34:00,
2013-01-13 08:40:00,37.4,32.0,28.85,SW,235,0.0,0.0,83,0.00,,,-99.99,wx200d/1.3,2013-01-13 13:40:00,
2013-01-13 08:46:00,37.6,32.0,28.88,SW,235,0.0,0.0,83,0.00,,,-99.99,wx200d/1.3,2013-01-13 13:46:00,
2013-01-13 08:52:00,37.8,32.0,28.88,SW,235,0.0,0.0,83,0.00,,,-99.99,wx200d/1.3,2013-01-13 13:52:00,
2013-01-13 08:58:00,37.8,32.0,28.88,SW,225,0.0,0.0,83,0.00,,,-99.99,wx200d/1.3,2013-01-13 13:58:00,
2013-01-13 09:04:00,37.9,32.0,28.88,SW,214,0.0,0.0,83,0.00,,,-99.99,wx200d/1.3,2013-01-13 14:04:00,
2013-01-13 09:10:00,37.9,32.0,28.88,SW,214,0.0,0.0,83,0.00,,,-99.99,wx200d/1.3,2013-01-13 14:10:00,
2013-01-13 09:16:00,38.3,34.0,28.88,SSW,210,0.0,0.0,83,0.00,,,-99.99,wx200d/1.3,2013-01-13 14:16:00,
2013-01-13 09:22:00,38.5,34.0,28.88,SSW,210,0.0,0.0,83,0.00,,,-99.99,wx200d/1.3,2013-01-13 14:22:00,
2013-01-13 09:28:00,38.7,34.0,28.88,SW,234,0.0,0.0,83,0.00,,,-99.99,wx200d/1.3,2013-01-13 14:28:00,
2013-01-13 09:34:00,38.8,34.0,28.85,SSW,210,0.0,0.0,83,0.00,,,-99.99,wx200d/1.3,2013-01-13 14:34:00,
2013-01-13 09:42:00,38.7,34.0,28.85,WSW,252,0.0,0.0,83,0.00,,,-99.99,wx200d/1.3,2013-01-13 14:42:00,
2013-01-13 09:48:00,38.5,34.0,28.88,SSW,212,0.0,0.0,83,0.00,,,-99.99,wx200d/1.3,2013-01-13 14:48:00,
2013-01-13 09:54:00,39.2,34.0,28.88,SW,214,0.0,0.0,83,0.00,,,-99.99,wx200d/1.3,2013-01-13 14:54:00,
2013-01-13 10:00:00,39.4,34.0,28.88,SSW,213,0.0,0.0,83,0.00,,,-99.99,wx200d/1.3,2013-01-13 15:00:00,
2013-01-13 10:06:00,39.9,34.0,28.88,West,261,2.2,3.1,83,0.00,,,-99.99,wx200d/1.3,2013-01-13 15:06:00,
2013-01-13 10:12:00,40.3,36.0,28.88,WSW,245,0.0,3.1,83,0.00,,,-99.99,wx200d/1.3,2013-01-13 15:12:00,
2013-01-13 10:18:00,40.5,36.0,28.88,SSE,160,0.0,0.0,83,0.00,,,-99.99,wx200d/1.3,2013-01-13 15:18:00,
2013-01-13 10:24:00,40.5,36.0,28.88,South,180,2.7,3.1,83,0.00,,,-99.99,wx200d/1.3,2013-01-13 15:24:00,
2013-01-13 10:30:00,40.5,36.0,28.88,SSW,204,0.0,4.0,83,0.00,,,-99.99,wx200d/1.3,2013-01-13 15:30:00,
2013-01-13 10:36:00,40.5,36.0,28.88,SSE,157,0.0,5.4,83,0.00,,,-99.99,wx200d/1.3,2013-01-13 15:36:00,
2013-01-13 10:42:00,40.6,36.0,28.88,SSW,210,0.0,0.0,83,0.00,,,-99.99,wx200d/1.3,2013-01-13 15:42:00,
2013-01-13 10:48:00,40.8,36.0,28.88,WSW,252,3.6,3.6,83,0.00,,,-99.99,wx200d/1.3,2013-01-13 15:48:00,
2013-01-13 10:54:00,41.0,36.0,28.88,South,191,4.5,4.5,82,0.00,,,-99.99,wx200d/1.3,2013-01-13 15:54:00,
2013-01-13 11:00:00,41.0,36.0,28.88,South,185,3.1,4.9,82,0.00,,,-99.99,wx200d/1.3,2013-01-13 16:00:00,
2013-01-13 11:06:00,41.2,36.0,28.85,SSE,164,0.0,5.4,82,0.00,,,-99.99,wx200d/1.3,2013-01-13 16:06:00,
2013-01-13 11:12:00,41.2,36.0,28.85,South,186,2.2,0.0,82,0.00,,,-99.99,wx200d/1.3,2013-01-13 16:12:00,
2013-01-13 11:18:00,41.4,36.0,28.85,WSW,253,2.7,0.0,82,0.00,,,-99.99,wx200d/1.3,2013-01-13 16:18:00,
2013-01-13 11:24:00,41.4,36.0,28.85,South,183,2.7,4.0,82,0.00,,,-99.99,wx200d/1.3,2013-01-13 16:24:00,
2013-01-13 11:30:00,41.5,36.0,28.85,SSW,207,3.1,3.1,82,0.00,,,-99.99,wx200d/1.3,2013-01-13 16:30:00,
2013-01-13 11:36:00,41.7,36.0,28.85,WSW,248,0.0,2.2,82,0.00,,,-99.99,wx200d/1.3,2013-01-13 16:36:00,
2013-01-13 11:42:00,41.9,37.0,28.85,SSE,150,0.0,5.4,82,0.00,,,-99.99,wx200d/1.3,2013-01-13 16:42:00,
2013-01-13 11:48:00,42.1,37.0,28.82,SW,227,2.7,2.7,82,0.00,,,-99.99,wx200d/1.3,2013-01-13 16:48:00,
2013-01-13 11:54:00,42.1,37.0,28.82,WSW,251,3.1,3.1,82,0.00,,,-99.99,wx200d/1.3,2013-01-13 16:54:00,
2013-01-13 12:02:00,42.3,37.0,28.82,SW,233,3.6,3.6,82,0.00,,,-99.99,wx200d/1.3,2013-01-13 17:02:00,
2013-01-13 12:08:00,42.4,37.0,28.82,SSE,163,2.2,3.1,82,0.00,,,-99.99,wx200d/1.3,2013-01-13 17:08:00,
2013-01-13 12:14:00,42.4,37.0,28.82,South,182,4.0,4.9,82,0.00,,,-99.99,wx200d/1.3,2013-01-13 17:14:00,
2013-01-13 12:22:00,42.6,37.0,28.82,SW,236,4.0,4.0,83,0.00,,,-99.99,wx200d/1.3,2013-01-13 17:22:00,
2013-01-13 12:28:00,42.8,37.0,28.82,SSW,192,3.6,3.6,82,0.00,,,-99.99,wx200d/1.3,2013-01-13 17:28:00,
2013-01-13 12:34:00,43.0,37.0,28.82,SSW,196,3.1,3.6,82,0.00,,,-99.99,wx200d/1.3,2013-01-13 17:34:00,
2013-01-13 12:42:00,43.0,37.0,28.82,South,188,3.6,5.4,82,0.00,,,-99.99,wx200d/1.3,2013-01-13 17:42:00,
2013-01-13 12:48:00,43.2,37.0,28.82,West,268,3.1,3.1,83,0.00,,,-99.99,wx200d/1.3,2013-01-13 17:48:00,
2013-01-13 12:54:00,43.0,37.0,28.82,West,270,3.1,3.6,83,0.00,,,-99.99,wx200d/1.3,2013-01-13 17:54:00,
2013-01-13 13:00:00,43.0,37.0,28.82,WSW,253,2.7,5.8,83,0.00,,,-99.99,wx200d/1.3,2013-01-13 18:00:00,
2013-01-13 13:06:00,43.0,37.0,28.82,SSW,204,4.0,4.0,83,0.00,,,-99.99,wx200d/1.3,2013-01-13 18:06:00,
2013-01-13 13:12:00,42.8,37.0,28.82,South,175,3.1,5.8,83,0.00,,,-99.99,wx200d/1.3,2013-01-13 18:12:00,
2013-01-13 13:18:00,42.8,37.0,28.82,SSW,200,2.7,3.1,83,0.00,,,-99.99,wx200d/1.3,2013-01-13 18:18:00,
2013-01-13 13:24:00,42.8,37.0,28.82,SW,222,0.0,0.0,83,0.00,,,-99.99,wx200d/1.3,2013-01-13 18:24:00,
2013-01-13 13:30:00,42.8,37.0,28.82,SSW,206,3.1,0.0,83,0.00,,,-99.99,wx200d/1.3,2013-01-13 18:30:00,
2013-01-13 13:36:00,42.8,37.0,28.79,WSW,252,4.0,4.0,83,0.00,,,-99.99,wx200d/1.3,2013-01-13 18:36:00,
2013-01-13 13:42:00,42.6,39.0,28.79,WSW,238,2.2,2.7,84,0.00,,,-99.99,wx200d/1.3,2013-01-13 18:42:00,
2013-01-13 13:48:00,42.6,39.0,28.79,West,276,3.1,5.8,84,0.00,,,-99.99,wx200d/1.3,2013-01-13 18:48:00,
2013-01-13 13:54:00,42.8,37.0,28.79,West,267,2.7,7.2,83,0.00,,,-99.99,wx200d/1.3,2013-01-13 18:54:00,
2013-01-13 14:00:00,42.8,37.0,28.79,South,179,3.1,4.9,83,0.00,,,-99.99,wx200d/1.3,2013-01-13 19:00:00,
2013-01-13 14:06:00,43.0,37.0,28.79,SW,217,0.0,4.0,83,0.00,,,-99.99,wx200d/1.3,2013-01-13 19:06:00,
2013-01-13 14:12:00,42.8,37.0,28.79,SSW,205,0.0,0.0,83,0.00,,,-99.99,wx200d/1.3,2013-01-13 19:12:00,
2013-01-13 14:18:00,42.8,37.0,28.79,West,268,2.2,3.1,83,0.00,,,-99.99,wx200d/1.3,2013-01-13 19:18:00,
2013-01-13 14:24:00,42.8,37.0,28.79,SSW,195,3.1,0.0,83,0.00,,,-99.99,wx200d/1.3,2013-01-13 19:24:00,
2013-01-13 14:30:00,42.6,39.0,28.79,West,280,0.0,0.0,84,0.00,,,-99.99,wx200d/1.3,2013-01-13 19:30:00,
2013-01-13 14:36:00,42.8,39.0,28.79,SSW,201,2.2,5.4,84,0.00,,,-99.99,wx200d/1.3,2013-01-13 19:36:00,
2013-01-13 14:42:00,42.8,39.0,28.79,SW,230,2.7,0.0,84,0.00,,,-99.99,wx200d/1.3,2013-01-13 19:42:00,
2013-01-13 14:48:00,42.6,39.0,28.79,West,260,2.2,0.0,84,0.00,,,-99.99,wx200d/1.3,2013-01-13 19:48:00,
2013-01-13 14:54:00,42.6,39.0,28.79,WSW,257,3.6,4.0,84,0.00,,,-99.99,wx200d/1.3,2013-01-13 19:54:00,
2013-01-13 15:00:00,42.8,39.0,28.79,SSW,197,3.1,5.4,84,0.00,,,-99.99,wx200d/1.3,2013-01-13 20:00:00,
2013-01-13 15:06:00,42.8,39.0,28.79,South,182,4.5,6.3,84,0.00,,,-99.99,wx200d/1.3,2013-01-13 20:06:00,
2013-01-13 15:12:00,43.0,39.0,28.79,SW,217,4.0,4.0,84,0.00,,,-99.99,wx200d/1.3,2013-01-13 20:12:00,
2013-01-13 15:18:00,43.2,39.0,28.79,South,179,5.4,5.4,84,0.00,,,-99.99,wx200d/1.3,2013-01-13 20:18:00,
2013-01-13 15:24:00,43.0,39.0,28.79,SW,226,3.1,3.6,84,0.00,,,-99.99,wx200d/1.3,2013-01-13 20:24:00,
2013-01-13 15:30:00,42.8,39.0,28.79,SSW,211,3.1,4.9,84,0.00,,,-99.99,wx200d/1.3,2013-01-13 20:30:00,
2013-01-13 15:36:00,42.8,39.0,28.79,SSE,168,3.6,5.8,84,0.00,,,-99.99,wx200d/1.3,2013-01-13 20:36:00,
2013-01-13 15:42:00,43.2,39.0,28.79,SSW,209,3.6,3.6,84,0.00,,,-99.99,wx200d/1.3,2013-01-13 20:42:00,
2013-01-13 15:48:00,43.0,39.0,28.79,SW,215,2.7,5.4,84,0.00,,,-99.99,wx200d/1.3,2013-01-13 20:48:00,
2013-01-13 15:54:00,43.2,39.0,28.79,SW,216,3.6,3.6,84,0.00,,,-99.99,wx200d/1.3,2013-01-13 20:54:00,
2013-01-13 16:00:00,43.2,39.0,28.79,South,189,4.5,4.5,84,0.00,,,-99.99,wx200d/1.3,2013-01-13 21:00:00,
2013-01-13 16:06:00,43.0,39.0,28.79,SW,214,0.0,3.6,84,0.00,,,-99.99,wx200d/1.3,2013-01-13 21:06:00,
2013-01-13 16:12:00,43.0,39.0,28.79,South,182,2.2,3.1,84,0.00,,,-99.99,wx200d/1.3,2013-01-13 21:12:00,
2013-01-13 16:18:00,43.3,39.0,28.76,South,186,4.0,4.0,84,0.00,,,-99.99,wx200d/1.3,2013-01-13 21:18:00,
2013-01-13 16:24:00,43.3,39.0,28.76,SSW,198,5.4,7.2,84,0.00,,,-99.99,wx200d/1.3,2013-01-13 21:24:00,
2013-01-13 16:30:00,43.3,39.0,28.76,SW,229,3.1,4.0,84,0.00,,,-99.99,wx200d/1.3,2013-01-13 21:30:00,
2013-01-13 16:36:00,43.3,39.0,28.76,West,261,0.0,3.6,84,0.00,,,-99.99,wx200d/1.3,2013-01-13 21:36:00,
2013-01-13 16:42:00,43.3,39.0,28.76,SW,235,2.2,0.0,84,0.00,,,-99.99,wx200d/1.3,2013-01-13 21:42:00,
2013-01-13 16:48:00,43.3,39.0,28.76,SSW,208,4.5,4.9,84,0.00,,,-99.99,wx200d/1.3,2013-01-13 21:48:00,
2013-01-13 16:54:00,43.5,39.0,28.76,West,267,3.1,3.1,84,0.00,,,-99.99,wx200d/1.3,2013-01-13 21:54:00,
2013-01-13 17:00:00,43.7,41.0,28.76,South,188,2.2,8.1,84,0.00,,,-99.99,wx200d/1.3,2013-01-13 22:00:00,
2013-01-13 17:06:00,44.4,41.0,28.76,SW,231,4.5,4.9,84,0.00,,,-99.99,wx200d/1.3,2013-01-13 22:06:00,
2013-01-13 17:12:00,44.6,41.0,28.76,South,173,4.5,6.7,84,0.00,,,-99.99,wx200d/1.3,2013-01-13 22:12:00,
2013-01-13 17:18:00,44.8,41.0,28.76,SSE,168,8.7,8.7,84,0.00,,,-99.99,wx200d/1.3,2013-01-13 22:18:00,
2013-01-13 17:24:00,45.0,41.0,28.76,WSW,238,6.3,7.6,84,0.00,,,-99.99,wx200d/1.3,2013-01-13 22:24:00,
2013-01-13 17:30:00,44.8,41.0,28.76,South,183,7.2,7.2,84,0.00,,,-99.99,wx200d/1.3,2013-01-13 22:30:00,
2013-01-13 17:36:00,44.6,41.0,28.76,West,265,4.0,8.1,84,0.00,,,-99.99,wx200d/1.3,2013-01-13 22:36:00,
2013-01-13 17:42:00,44.6,41.0,28.76,SW,231,3.1,4.0,84,0.00,,,-99.99,wx200d/1.3,2013-01-13 22:42:00,
2013-01-13 17:48:00,44.4,41.0,28.76,SSW,209,3.6,5.4,84,0.00,,,-99.99,wx200d/1.3,2013-01-13 22:48:00,
2013-01-13 17:54:00,44.2,41.0,28.76,WSW,243,4.0,4.9,84,0.00,,,-99.99,wx200d/1.3,2013-01-13 22:54:00,
2013-01-13 18:00:00,44.4,41.0,28.76,West,262,3.6,5.8,84,0.00,,,-99.99,wx200d/1.3,2013-01-13 23:00:00,
2013-01-13 18:06:00,44.2,41.0,28.76,West,266,6.7,6.7,84,0.00,,,-99.99,wx200d/1.3,2013-01-13 23:06:00,
2013-01-13 18:12:00,44.2,41.0,28.76,SW,236,4.0,4.0,84,0.00,,,-99.99,wx200d/1.3,2013-01-13 23:12:00,
2013-01-13 18:18:00,44.2,41.0,28.79,SW,232,4.9,4.9,84,0.00,,,-99.99,wx200d/1.3,2013-01-13 23:18:00,
2013-01-13 18:24:00,44.1,41.0,28.79,SSW,205,4.5,4.5,84,0.00,,,-99.99,wx200d/1.3,2013-01-13 23:24:00,
2013-01-13 18:30:00,43.9,41.0,28.79,SSW,210,2.2,12.8,84,0.00,,,-99.99,wx200d/1.3,2013-01-13 23:30:00,
2013-01-13 18:36:00,43.7,41.0,28.79,SSW,198,4.9,6.3,84,0.00,,,-99.99,wx200d/1.3,2013-01-13 23:36:00,
2013-01-13 18:42:00,43.7,41.0,28.79,SW,221,4.5,5.4,84,0.00,,,-99.99,wx200d/1.3,2013-01-13 23:42:00,
2013-01-13 18:48:00,43.7,41.0,28.76,SSW,208,5.4,5.4,84,0.00,,,-99.99,wx200d/1.3,2013-01-13 23:48:00,
2013-01-13 18:54:00,43.7,41.0,28.76,WNW,288,3.6,3.6,84,0.00,,,-99.99,wx200d/1.3,2013-01-13 23:54:00,
2013-01-13 19:00:00,43.7,41.0,28.76,SSW,196,7.2,7.2,84,0.00,,,-99.99,wx200d/1.3,2013-01-14 00:00:00,
2013-01-13 19:06:00,43.7,41.0,28.76,SSW,196,6.3,6.3,84,0.00,,,-99.99,wx200d/1.3,2013-01-14 00:06:00,
2013-01-13 19:12:00,43.7,41.0,28.76,SE,137,5.8,8.7,84,0.00,,,-99.99,wx200d/1.3,2013-01-14 00:12:00,
2013-01-13 19:18:00,44.1,41.0,28.76,SW,225,8.3,8.7,84,0.00,,,-99.99,wx200d/1.3,2013-01-14 00:18:00,
2013-01-13 19:24:00,44.1,41.0,28.76,SW,218,4.9,4.9,84,0.00,,,-99.99,wx200d/1.3,2013-01-14 00:24:00,
2013-01-13 19:30:00,44.2,41.0,28.76,SSW,194,4.5,12.8,84,0.00,,,-99.99,wx200d/1.3,2013-01-14 00:30:00,
2013-01-13 19:36:00,44.2,41.0,28.76,South,184,6.3,6.3,84,0.00,,,-99.99,wx200d/1.3,2013-01-14 00:36:00,
2013-01-13 19:42:00,44.4,41.0,28.76,SSW,211,7.2,7.2,84,0.00,,,-99.99,wx200d/1.3,2013-01-14 00:42:00,
2013-01-13 19:48:00,44.2,41.0,28.76,SW,222,5.8,5.8,84,0.00,,,-99.99,wx200d/1.3,2013-01-14 00:48:00,
2013-01-13 19:54:00,44.2,41.0,28.76,SSW,199,4.5,4.9,84,0.00,,,-99.99,wx200d/1.3,2013-01-14 00:54:00,
2013-01-13 20:00:00,44.1,41.0,28.76,NW,318,6.7,6.7,84,0.00,,,-99.99,wx200d/1.3,2013-01-14 01:00:00,
2013-01-13 20:06:00,44.1,41.0,28.76,SSW,212,6.7,6.7,84,0.00,,,-99.99,wx200d/1.3,2013-01-14 01:06:00,
2013-01-13 20:12:00,44.1,41.0,28.76,SW,218,5.4,5.4,84,0.00,,,-99.99,wx200d/1.3,2013-01-14 01:12:00,
2013-01-13 20:18:00,43.9,41.0,28.76,SSW,205,4.5,4.9,84,0.00,,,-99.99,wx200d/1.3,2013-01-14 01:18:00,
2013-01-13 20:24:00,44.1,41.0,28.76,WSW,238,5.4,5.4,84,0.00,,,-99.99,wx200d/1.3,2013-01-14 01:24:00,
2013-01-13 20:30:00,43.7,41.0,28.76,WSW,240,3.6,5.4,84,0.00,,,-99.99,wx200d/1.3,2013-01-14 01:30:00,
2013-01-13 20:36:00,43.7,41.0,28.76,West,277,2.7,2.7,84,0.00,,,-99.99,wx200d/1.3,2013-01-14 01:36:00,
2013-01-13 20:42:00,43.7,39.0,28.76,WSW,248,4.9,0.0,83,0.00,,,-99.99,wx200d/1.3,2013-01-14 01:42:00,
2013-01-13 20:48:00,43.7,39.0,28.76,SW,223,2.7,3.1,83,0.00,,,-99.99,wx200d/1.3,2013-01-14 01:48:00,
2013-01-13 20:54:00,43.7,39.0,28.76,SW,226,2.2,3.6,83,0.00,,,-99.99,wx200d/1.3,2013-01-14 01:54:00,
2013-01-13 21:00:00,43.7,39.0,28.76,West,271,2.7,3.6,83,0.00,,,-99.99,wx200d/1.3,2013-01-14 02:00:00,
2013-01-13 21:06:00,43.7,39.0,28.76,WSW,253,5.8,8.7,83,0.00,,,-99.99,wx200d/1.3,2013-01-14 02:06:00,
2013-01-13 21:12:00,43.3,37.0,28.76,WSW,254,0.0,4.0,83,0.00,,,-99.99,wx200d/1.3,2013-01-14 02:12:00,
2013-01-13 21:18:00,43.3,37.0,28.73,SSW,205,0.0,0.0,83,0.00,,,-99.99,wx200d/1.3,2013-01-14 02:18:00,
2013-01-13 21:24:00,43.3,37.0,28.73,South,179,0.0,5.4,83,0.00,,,-99.99,wx200d/1.3,2013-01-14 02:24:00,
2013-01-13 21:30:00,43.5,37.0,28.73,SSE,151,3.1,4.9,83,0.00,,,-99.99,wx200d/1.3,2013-01-14 02:30:00,
2013-01-13 21:36:00,43.3,37.0,28.73,SSW,204,0.0,2.7,83,0.00,,,-99.99,wx200d/1.3,2013-01-14 02:36:00,
2013-01-13 21:42:00,43.3,37.0,28.73,SSW,211,4.9,4.9,83,0.00,,,-99.99,wx200d/1.3,2013-01-14 02:42:00,
2013-01-13 21:48:00,43.3,37.0,28.73,SW,230,0.0,2.2,83,0.00,,,-99.99,wx200d/1.3,2013-01-14 02:48:00,
2013-01-13 21:54:00,43.2,37.0,28.73,WSW,258,0.0,4.9,83,0.00,,,-99.99,wx200d/1.3,2013-01-14 02:54:00,
2013-01-13 22:00:00,43.2,37.0,28.73,West,261,2.7,0.0,83,0.00,,,-99.99,wx200d/1.3,2013-01-14 03:00:00,
2013-01-13 22:06:00,43.0,37.0,28.73,West,265,2.2,4.0,83,0.00,,,-99.99,wx200d/1.3,2013-01-14 03:06:00,
2013-01-13 22:12:00,43.0,37.0,28.73,West,271,2.2,4.0,83,0.00,,,-99.99,wx200d/1.3,2013-01-14 03:12:00,
2013-01-13 22:18:00,43.0,37.0,28.73,SSW,210,0.0,3.6,83,0.00,,,-99.99,wx200d/1.3,2013-01-14 03:18:00,
2013-01-13 22:24:00,43.0,37.0,28.73,WSW,249,0.0,0.0,83,0.00,,,-99.99,wx200d/1.3,2013-01-14 03:24:00,
2013-01-13 22:30:00,42.6,37.0,28.73,West,279,0.0,0.0,83,0.00,,,-99.99,wx200d/1.3,2013-01-14 03:30:00,
2013-01-13 22:36:00,42.8,37.0,28.76,SW,226,0.0,0.0,83,0.00,,,-99.99,wx200d/1.3,2013-01-14 03:36:00,
2013-01-13 22:42:00,42.8,37.0,28.76,WSW,257,0.0,3.6,83,0.00,,,-99.99,wx200d/1.3,2013-01-14 03:42:00,
2013-01-13 22:48:00,43.0,37.0,28.76,South,180,0.0,3.6,83,0.00,,,-99.99,wx200d/1.3,2013-01-14 03:48:00,
2013-01-13 22:54:00,42.8,37.0,28.76,WSW,239,0.0,0.0,83,0.00,,,-99.99,wx200d/1.3,2013-01-14 03:54:00,
2013-01-13 23:00:00,42.8,37.0,28.76,SSW,204,2.7,5.8,83,0.00,,,-99.99,wx200d/1.3,2013-01-14 04:00:00,
2013-01-13 23:06:00,42.8,37.0,28.76,SW,216,0.0,3.6,83,0.00,,,-99.99,wx200d/1.3,2013-01-14 04:06:00,
2013-01-13 23:12:00,42.6,37.0,28.76,WSW,245,0.0,0.0,83,0.00,,,-99.99,wx200d/1.3,2013-01-14 04:12:00,
2013-01-13 23:18:00,42.6,37.0,28.73,South,190,0.0,0.0,83,0.00,,,-99.99,wx200d/1.3,2013-01-14 04:18:00,
2013-01-13 23:24:00,42.4,37.0,28.73,West,266,2.7,0.0,83,0.00,,,-99.99,wx200d/1.3,2013-01-14 04:24:00,
2013-01-13 23:30:00,42.4,37.0,28.73,SSW,205,0.0,0.0,83,0.00,,,-99.99,wx200d/1.3,2013-01-14 04:30:00,
2013-01-13 23:36:00,42.4,37.0,28.76,WSW,253,2.7,2.7,83,0.00,,,-99.99,wx200d/1.3,2013-01-14 04:36:00,
2013-01-13 23:42:00,42.4,37.0,28.76,South,183,0.0,3.1,83,0.00,,,-99.99,wx200d/1.3,2013-01-14 04:42:00,
2013-01-13 23:48:00,42.6,37.0,28.73,WSW,256,3.6,0.0,83,0.00,,,-99.99,wx200d/1.3,2013-01-14 04:48:00,
2013-01-13 23:54:00,42.4,37.0,28.73,West,262,2.7,3.6,83,0.00,,,-99.99,wx200d/1.3,2013-01-14 04:54:00,